FW4318 Weather Reports


time (UTC)temp
C
wind
direction
speed
KPH
gust
KPH
rain 1hr
cm
rain 24hr
cm
rain mn
cm
humidity
%
barometer
mb
20260503050058 8 264 19.3 22.5 0.00 0.00 0.00 54 868.1
20260503040112 8 263 19.3 25.7 0.00 0.00 0.00 54 868.1
20260503030117 9 265 16.1 22.5 0.00 0.00 0.00 52 867.3
20260503020111 8 283 19.3 24.1 0.00 0.00 0.00 55 867.3
20260503010106 11 154 8.0 16.1 0.00 0.00 0.00 39 867.7
20260503000355 12 101 12.9 22.5 0.00 0.00 0.00 39 867.7
20260502230108 13 145 3.2 8.0 0.00 0.00 0.00 40 868.2
20260502220100 13 145 1.6 14.5 0.00 0.00 0.00 42 868.8
20260502210117 12 145 11.3 17.7 0.00 0.00 0.00 42 869.1
20260502200105 11 78 16.1 20.9 0.00 0.00 0.00 44 869.0
20260502190100 10 84 11.3 20.9 0.00 0.00 0.00 39 869.3
20260502170118 10 115 8.0 14.5 0.00 0.00 0.00 41 869.1
20260502150118 8 196 11.3 12.9 0.00 0.00 0.00 38 868.9
20260502140112 7 212 12.9 17.7 0.00 0.00 0.00 39 868.8
20260502130110 7 235 11.3 16.1 0.00 0.00 0.00 44 868.8
20260502110055 7 187 8.0 11.3 0.00 0.00 0.00 43 868.8
20260502100113 7 209 9.7 16.1 0.00 0.00 0.00 50 868.9
20260502090110 6 167 8.0 14.5 0.00 0.00 0.00 56 869.0
20260502070140 7 200 11.3 12.9 0.00 0.00 0.00 46 869.0
20260502060112 6 234 6.4 9.7 0.00 0.00 0.00 46 869.0